TimeCST,TemperatureF,Dew PointF,Humidity,Sea Level PressureIn,VisibilityMPH,Wind Direction,Wind SpeedMPH,Gust SpeedMPH,PrecipitationIn,Events,Conditions,WindDirDegrees,DateUTC
12:15 AM,28.4,23.9,83,30.18,10.0,North,21.9,-,N/A,,Overcast,350,2014-02-02 06:15:00
12:35 AM,27.7,22.8,82,30.21,10.0,North,18.4,-,N/A,,Overcast,350,2014-02-02 06:35:00
12:55 AM,27.1,22.1,81,30.21,10.0,North,13.8,-,N/A,,Overcast,360,2014-02-02 06:55:00
1:15 AM,26.6,21.6,81,30.20,10.0,North,17.3,24.2,N/A,,Overcast,360,2014-02-02 07:15:00
1:35 AM,26.2,21.2,81,30.20,10.0,North,17.3,24.2,N/A,,Mostly Cloudy,10,2014-02-02 07:35:00
1:55 AM,26.1,20.8,81,30.20,10.0,North,17.3,21.9,N/A,,Mostly Cloudy,360,2014-02-02 07:55:00
2:15 AM,26.1,20.5,79,30.23,10.0,North,16.1,-,N/A,,Mostly Cloudy,350,2014-02-02 08:15:00
2:35 AM,25.7,20.1,79,30.19,10.0,North,20.7,24.2,N/A,,Scattered Clouds,350,2014-02-02 08:35:00
2:55 AM,25.3,19.4,78,30.20,10.0,North,18.4,27.6,N/A,,Scattered Clouds,360,2014-02-02 08:55:00
3:15 AM,24.8,19.2,79,30.20,10.0,North,18.4,-,N/A,,Scattered Clouds,350,2014-02-02 09:15:00
3:35 AM,24.8,18.9,78,30.20,10.0,North,23.0,28.8,N/A,,Mostly Cloudy,350,2014-02-02 09:35:00
3:55 AM,24.6,18.1,76,30.22,10.0,North,19.6,27.6,N/A,,Scattered Clouds,350,2014-02-02 09:55:00
4:15 AM,24.3,17.4,75,30.23,10.0,North,20.7,25.3,N/A,,Scattered Clouds,350,2014-02-02 10:15:00
4:35 AM,23.7,17.1,76,30.23,10.0,North,16.1,24.2,N/A,,Mostly Cloudy,360,2014-02-02 10:35:00
4:55 AM,23.4,17.1,77,30.22,10.0,North,17.3,23.0,N/A,,Overcast,360,2014-02-02 10:55:00
5:15 AM,23.0,16.9,77,30.23,10.0,North,17.3,-,N/A,,Overcast,360,2014-02-02 11:15:00
5:35 AM,23.0,16.5,76,30.23,10.0,North,18.4,-,N/A,,Overcast,360,2014-02-02 11:35:00
5:55 AM,22.8,16.5,77,30.22,10.0,North,18.4,23.0,N/A,,Overcast,360,2014-02-02 11:55:00
6:15 AM,22.1,16.7,80,30.21,7.0,North,20.7,24.2,N/A,Snow,Light Snow,360,2014-02-02 12:15:00
6:35 AM,22.1,16.5,79,30.21,5.0,North,20.7,-,N/A,Snow,Light Snow,10,2014-02-02 12:35:00
6:55 AM,22.1,16.3,79,30.23,10.0,North,18.4,24.2,N/A,,Overcast,360,2014-02-02 12:55:00
7:15 AM,22.1,16.2,78,30.23,10.0,North,18.4,-,N/A,,Overcast,10,2014-02-02 13:15:00
7:35 AM,21.9,15.4,76,30.23,10.0,North,18.4,24.2,N/A,,Overcast,10,2014-02-02 13:35:00
7:55 AM,21.7,15.4,77,30.23,10.0,North,15.0,21.9,N/A,,Mostly Cloudy,360,2014-02-02 13:55:00
8:15 AM,21.9,14.9,74,30.24,10.0,North,16.1,-,N/A,,Mostly Cloudy,360,2014-02-02 14:15:00
8:35 AM,22.1,14.9,74,30.27,10.0,North,16.1,20.7,N/A,,Overcast,360,2014-02-02 14:35:00
8:55 AM,22.1,14.2,72,30.29,10.0,North,18.4,-,N/A,,Overcast,350,2014-02-02 14:55:00
9:15 AM,22.1,13.8,70,30.30,10.0,North,15.0,-,N/A,,Overcast,350,2014-02-02 15:15:00
9:35 AM,22.1,13.1,68,30.31,10.0,North,15.0,-,N/A,,Overcast,360,2014-02-02 15:35:00
9:55 AM,22.1,12.0,65,30.29,10.0,North,20.7,-,N/A,,Overcast,350,2014-02-02 15:55:00
10:15 AM,22.1,11.3,63,30.30,10.0,North,18.4,-,N/A,,Overcast,360,2014-02-02 16:15:00
10:35 AM,23.0,11.3,61,30.32,10.0,North,13.8,23.0,N/A,,Overcast,10,2014-02-02 16:35:00
10:55 AM,23.7,11.5,60,30.31,10.0,North,18.4,-,N/A,,Overcast,10,2014-02-02 16:55:00
11:15 AM,24.6,11.5,57,30.30,10.0,North,16.1,-,N/A,,Scattered Clouds,10,2014-02-02 17:15:00
11:35 AM,25.3,11.5,56,30.30,10.0,North,16.1,23.0,N/A,,Clear,360,2014-02-02 17:35:00
11:55 AM,27.1,11.7,52,30.30,10.0,North,16.1,23.0,N/A,,Clear,350,2014-02-02 17:55:00
12:15 PM,27.3,11.5,51,30.29,10.0,North,17.3,23.0,N/A,,Clear,360,2014-02-02 18:15:00
12:35 PM,27.0,11.1,51,30.29,10.0,North,15.0,19.6,N/A,,Clear,350,2014-02-02 18:35:00
12:55 PM,28.6,11.3,48,30.28,10.0,North,15.0,21.9,N/A,,Clear,360,2014-02-02 18:55:00
1:15 PM,28.6,11.3,48,30.27,10.0,North,13.8,-,N/A,,Clear,10,2014-02-02 19:15:00
1:35 PM,28.8,10.4,46,30.26,10.0,North,12.7,17.3,N/A,,Clear,350,2014-02-02 19:35:00
1:55 PM,29.1,10.8,46,30.25,10.0,North,10.4,20.7,N/A,,Clear,10,2014-02-02 19:55:00
2:15 PM,30.0,10.6,44,30.24,10.0,North,16.1,-,N/A,,Clear,10,2014-02-02 20:15:00
2:35 PM,30.6,10.4,43,30.24,10.0,North,13.8,-,N/A,,Clear,10,2014-02-02 20:35:00
2:55 PM,30.7,9.7,41,30.23,10.0,North,16.1,-,N/A,,Clear,360,2014-02-02 20:55:00
3:15 PM,31.5,9.9,41,30.22,10.0,North,16.1,24.2,N/A,,Clear,360,2014-02-02 21:15:00
3:35 PM,32.0,9.9,40,30.23,10.0,North,13.8,18.4,N/A,,Clear,10,2014-02-02 21:35:00
3:55 PM,32.4,10.4,40,30.23,10.0,North,12.7,-,N/A,,Clear,10,2014-02-02 21:55:00
4:15 PM,32.0,10.2,40,30.23,10.0,NNE,13.8,-,N/A,,Clear,20,2014-02-02 22:15:00
4:35 PM,32.0,9.7,39,30.24,10.0,NNE,10.4,-,N/A,,Clear,20,2014-02-02 22:35:00
4:55 PM,32.0,10.0,40,30.24,10.0,North,11.5,-,N/A,,Clear,10,2014-02-02 22:55:00
5:15 PM,32.0,10.4,41,30.24,10.0,NNE,11.5,-,N/A,,Clear,20,2014-02-02 23:15:00
5:35 PM,30.9,10.4,42,30.24,10.0,NNE,9.2,-,N/A,,Clear,20,2014-02-02 23:35:00
5:55 PM,29.1,10.4,46,30.25,10.0,NE,5.8,-,N/A,,Clear,50,2014-02-02 23:55:00
6:15 PM,26.1,10.4,52,30.26,10.0,NNE,6.9,-,N/A,,Clear,30,2014-02-03 00:15:00
6:35 PM,24.1,10.6,56,30.25,10.0,NNE,9.2,-,N/A,,Clear,30,2014-02-03 00:35:00
6:55 PM,23.0,10.4,59,30.25,10.0,NE,8.1,-,N/A,,Clear,40,2014-02-03 00:55:00
7:15 PM,23.0,10.4,59,30.26,10.0,NNE,4.6,-,N/A,,Clear,30,2014-02-03 01:15:00
7:35 PM,21.9,10.2,61,30.26,10.0,North,4.6,-,N/A,,Clear,10,2014-02-03 01:35:00
7:55 PM,22.5,10.2,59,30.27,10.0,NNE,5.8,-,N/A,,Clear,30,2014-02-03 01:55:00
8:15 PM,21.9,9.5,59,30.27,10.0,NNE,4.6,-,N/A,,Clear,30,2014-02-03 02:15:00
8:35 PM,16.9,9.3,72,30.27,10.0,Calm,Calm,-,N/A,,Clear,0,2014-02-03 02:35:00
8:55 PM,18.1,10.0,71,30.27,10.0,Calm,Calm,-,N/A,,Clear,0,2014-02-03 02:55:00
9:15 PM,18.7,10.2,70,30.27,10.0,Calm,Calm,-,N/A,,Clear,0,2014-02-03 03:15:00
9:35 PM,18.7,9.7,68,30.27,10.0,Calm,Calm,-,N/A,,Clear,0,2014-02-03 03:35:00
9:55 PM,17.8,9.9,71,30.26,10.0,NE,6.9,-,N/A,,Clear,50,2014-02-03 03:55:00
10:15 PM,19.4,9.9,66,30.25,10.0,NE,6.9,-,N/A,,Clear,50,2014-02-03 04:15:00
10:35 PM,19.8,9.7,65,30.25,10.0,NE,5.8,-,N/A,,Clear,50,2014-02-03 04:35:00
10:55 PM,18.1,9.9,70,30.26,10.0,Calm,Calm,-,N/A,,Clear,0,2014-02-03 04:55:00
11:15 PM,19.0,9.5,66,30.27,10.0,Calm,Calm,-,N/A,,Clear,0,2014-02-03 05:15:00
11:35 PM,18.5,9.5,68,30.27,10.0,NE,3.5,-,N/A,,Clear,40,2014-02-03 05:35:00
11:55 PM,16.9,10.0,75,30.28,10.0,NE,5.8,-,N/A,,Clear,40,2014-02-03 05:55:00